Date,TemperatureHighF,TemperatureAvgF,TemperatureLowF,DewpointHighF,DewpointAvgF,DewpointLowF,HumidityHigh,HumidityAvg,HumidityLow,PressureMaxIn,PressureMinIn,WindSpeedMaxMPH,WindSpeedAvgMPH,GustSpeedMaxMPH,PrecipitationSumIn
2012-1-1,45,39,37,22,19,16,48,44,41,27.31,27.26,13,5,13,0.62
2012-1-2,38,29,15,16,9,4,81,44,30,27.28,27.08,20,5,20,0.00
2012-1-3,27,17,11,11,5,0,81,58,37,27.34,27.17,14,4,16,0.62
2012-1-4,50,20,8,20,6,-2,76,55,27,27.37,27.14,14,1,14,0.66
2012-1-5,56,34,23,28,22,17,96,64,27,27.28,27.17,6,1,6,0.66
2012-1-6,65,36,21,32,22,17,91,63,23,27.26,27.11,6,1,6,0.66
2012-1-7,58,43,29,48,35,19,82,73,59,27.20,27.11,9,1,9,0.00
2012-1-8,54,54,54,48,48,48,79,79,79,27.14,27.14,1,1,1,0.00
2012-1-10,48,48,48,47,47,47,98,98,98,27.20,27.20,2,0,2,0.00
2012-1-11,48,48,48,47,47,47,98,98,98,27.20,27.20,0,0,0,0.00
2012-1-12,48,48,48,47,47,47,98,98,98,27.20,27.20,0,0,0,0.00
2012-1-13,30,30,30,14,14,14,50,50,50,27.08,27.08,3,3,10,0.00
2012-1-15,47,36,23,24,21,17,85,56,37,27.55,27.46,6,1,10,0.00
2012-1-16,52,38,22,28,19,14,91,55,26,27.55,27.34,37,3,37,0.00
2012-1-17,59,54,47,51,39,21,95,60,31,27.37,27.05,38,6,38,0.66
2012-1-18,47,32,25,43,24,18,90,72,53,27.26,27.11,12,3,12,0.00
2012-1-19,48,34,19,27,18,12,95,60,24,27.23,27.08,16,2,16,0.00
2012-1-20,56,46,35,51,39,20,98,79,50,27.23,27.05,3,3,3,0.13
2012-1-21,60,50,46,54,48,42,98,93,55,27.23,26.96,3,3,3,0.92
2012-1-22,55,46,38,47,42,37,98,87,60,27.34,27.20,9,1,9,1.47
2012-1-23,49,49,49,42,42,42,78,78,78,27.28,27.28,0,0,0,1.47
2012-1-24,49,49,49,42,42,42,78,78,78,27.28,27.28,0,0,0,1.47
2012-1-25,49,49,49,42,42,42,78,78,78,27.28,27.28,0,0,0,3.85
2012-1-26,49,49,49,42,42,42,78,78,78,27.28,27.28,0,0,0,1.10
2012-1-27,49,36,30,42,33,29,98,90,78,27.28,27.14,3,0,3,1.47
2012-1-28,53,32,25,42,27,15,98,84,40,27.43,27.17,12,1,12,1.25
2012-1-29,48,33,18,21,13,6,92,50,22,27.52,27.37,15,2,15,0.00
2012-1-30,59,39,26,25,19,11,74,47,24,27.55,27.40,12,2,12,1.25
2012-1-31,64,44,26,33,23,18,87,50,19,27.49,27.34,15,2,17,1.25
2012-2-1,59,51,40,52,39,19,98,68,27,27.40,27.20,11,2,11,0.29
2012-2-2,60,49,32,50,39,29,98,73,34,27.46,27.17,13,2,13,1.62
2012-2-3,40,29,25,36,28,24,98,95,78,27.58,27.46,3,0,3,1.62
2012-2-4,58,52,45,53,49,32,98,89,37,27.37,27.17,14,2,14,1.83
2012-2-5,63,49,38,56,43,35,98,83,42,27.26,27.11,13,2,13,0.04
2012-2-6,58,42,33,42,36,30,98,80,37,27.31,27.20,15,1,15,1.62
2012-2-7,56,39,30,36,30,0,98,74,36,27.31,27.23,8,1,10,1.87
2012-2-8,50,37,28,35,29,-6,98,76,16,27.34,27.23,10,2,10,0.00
2012-2-9,51,35,26,28,24,21,88,66,38,27.37,27.23,10,3,10,0.00
2012-2-10,51,35,24,31,25,18,98,73,29,27.28,27.02,13,1,13,1.87
2012-2-11,35,26,14,30,14,-3,85,63,46,27.31,26.93,20,4,20,1.62
2012-2-12,37,21,11,14,4,-6,78,48,39,27.37,27.26,12,3,12,0.00
2012-2-13,52,30,11,23,15,7,88,58,21,27.34,27.11,8,1,8,1.62
2012-2-14,56,40,30,39,30,17,98,71,44,27.20,26.99,15,2,15,1.87
2012-2-15,34,32,31,32,31,30,97,96,94,27.26,27.20,2,0,2,0.00
2012-2-20,57,40,27,32,25,19,95,60,25,27.34,27.23,12,2,12,2.45
2012-2-21,56,43,26,33,27,20,90,56,37,27.31,27.08,24,4,24,0.00
2012-2-22,61,53,40,48,33,22,97,49,37,27.11,26.72,38,5,38,0.33
2012-2-23,71,56,42,52,43,38,98,69,32,26.81,26.69,23,3,23,0.08
2012-2-24,68,56,35,52,36,15,69,49,32,27.08,26.72,24,6,24,0.05
2012-2-25,47,36,26,26,14,9,87,43,29,27.37,27.08,18,5,18,0.00
2012-2-26,61,37,19,27,18,9,83,53,14,27.49,27.37,5,5,5,0.00
2012-2-27,63,44,29,43,32,19,90,64,44,27.52,27.40,5,5,5,2.91
2012-2-28,71,48,28,44,34,26,98,66,25,27.52,27.34,6,1,6,0.00
2012-2-29,67,62,53,56,51,44,90,69,50,27.34,27.02,14,3,33,0.28
2012-3-1,72,57,40,51,38,0,98,54,19,27.08,22.68,22,3,22,3.32
2012-3-2,68,49,38,60,43,32,96,80,51,27.08,26.81,26,2,26,3.90
2012-3-3,62,47,40,55,35,19,96,66,37,26.96,26.75,20,3,20,0.66
2012-3-4,42,36,33,23,17,13,63,45,36,27.11,26.87,15,3,15,0.00
2012-3-5,45,37,24,30,19,11,77,49,31,27.55,26.93,6,3,6,4.56
2012-3-6,67,41,20,31,18,6,82,47,13,27.61,27.49,9,3,9,0.00
2012-3-7,59,52,36,40,33,19,55,48,38,27.64,27.46,17,4,17,0.00
2012-3-8,65,58,52,54,43,39,95,59,40,27.49,27.23,15,3,15,0.62
2012-3-9,52,45,30,51,35,19,98,72,37,27.49,27.23,0,0,3,0.25
2012-3-10,66,43,25,30,25,22,92,57,23,27.61,27.46,0,0,0,0.00
2012-3-11,69,47,26,40,27,21,87,52,24,27.67,27.46,4,0,4,0.00
2012-3-12,60,54,50,53,46,39,98,75,57,27.55,27.34,6,3,6,0.04
2012-3-13,73,57,46,59,50,41,98,82,35,27.43,27.28,4,4,4,0.17
2012-3-14,77,55,38,54,45,38,98,74,32,27.49,27.34,4,4,4,0.00
2012-3-15,55,46,43,54,45,42,98,96,87,27.49,27.40,3,2,3,0.20
2012-3-16,76,59,47,58,50,43,98,77,36,27.49,27.28,10,2,10,1.29
2012-3-17,75,58,47,57,50,42,98,80,36,27.46,27.34,8,1,8,0.00
2012-3-18,72,59,50,60,54,48,98,85,54,27.52,27.34,6,1,6,0.21
2012-3-19,79,59,44,63,50,44,98,77,31,27.46,27.28,6,1,6,0.00
2012-3-20,81,61,48,60,51,43,98,76,30,27.46,27.28,10,1,57,1.54
2012-3-22,76,68,51,60,51,46,98,58,36,27.46,27.31,11,3,11,1.54
2012-3-23,66,56,53,62,55,52,98,97,77,27.37,27.28,9,0,9,1.58
2012-3-28,69,58,48,59,48,44,88,73,43,27.37,27.26,5,2,5,1.66
2012-3-31,64,57,44,61,55,42,98,94,81,27.08,27.05,8,1,8,2.12
2012-4-3,71,59,52,59,56,49,98,90,45,27.23,27.11,8,1,10,2.58
2012-4-4,75,60,50,64,54,49,98,84,41,27.20,26.93,10,1,10,0.00
2012-4-5,60,55,52,59,55,52,98,98,96,0.00,40.00,4,0,4,0.00
2012-4-6,60,60,60,59,59,59,98,98,98,26.96,26.96,2,2,2,3.20
2012-4-8,70,58,49,58,39,33,85,51,41,27.26,26.96,8,2,8,2.95
2012-4-9,71,55,36,37,29,17,84,44,14,27.28,27.05,19,3,19,0.37
2012-4-10,66,56,47,35,27,19,40,33,28,27.17,27.02,23,4,23,2.95
2012-4-11,56,46,38,25,18,12,38,32,28,27.23,27.11,23,5,23,0.37
2012-4-22,60,50,38,53,38,23,98,67,30,27.28,26.75,16,4,17,5.48
2012-4-23,51,42,36,27,23,17,63,48,32,26.96,26.78,20,4,24,5.44
2012-4-24,55,48,40,44,26,17,94,45,31,27.05,26.87,21,3,21,5.44
2012-4-25,45,45,44,45,44,42,98,97,88,27.05,26.99,4,0,4,0.21
2012-4-26,68,62,56,61,56,49,98,80,56,27.14,26.99,24,2,24,7.06
2012-4-27,75,62,54,59,54,50,98,78,48,27.28,27.11,11,2,11,0.21
2012-4-28,81,65,51,60,52,44,98,70,30,27.34,27.23,15,1,15,7.06
2012-4-29,84,66,52,65,56,51,98,74,38,27.40,27.28,9,1,9,7.06
2012-4-30,86,69,53,64,55,45,98,67,29,27.43,27.23,12,1,12,0.21
2012-5-1,84,70,58,62,57,0,98,67,32,27.37,27.26,11,1,11,0.21
2012-5-2,87,71,59,66,59,50,98,71,35,27.37,27.26,8,1,8,0.21
2012-5-3,85,68,53,66,57,50,98,74,33,27.40,27.23,57,1,57,7.06
2012-5-4,79,67,59,62,58,51,98,76,41,27.34,27.17,11,1,11,0.21
2012-5-5,80,65,54,63,56,48,98,78,34,27.26,27.11,57,1,57,0.21
2012-5-6,82,67,55,62,58,0,98,78,39,27.26,27.11,10,1,10,0.21
2012-5-7,78,65,56,66,58,0,100,81,43,27.23,27.11,11,1,11,7.22
2012-5-8,75,65,34,64,59,0,98,83,48,27.17,27.05,9,0,9,7.34
2012-5-9,62,58,47,61,54,43,98,88,55,27.11,27.02,7,1,12,0.13
2012-5-10,49,48,46,46,45,41,94,89,79,27.17,27.02,4,0,4,0.00
2012-5-11,49,41,36,46,40,35,97,93,79,27.34,27.02,4,0,4,0.00
2012-5-12,70,58,46,55,49,44,98,75,49,27.52,27.34,8,0,8,7.47
2012-5-13,61,58,34,59,55,0,98,92,80,27.43,27.26,0,0,0,0.33
2012-5-14,75,62,57,65,58,51,98,89,47,27.26,27.11,10,1,10,0.71
2012-5-15,74,62,56,64,58,56,98,89,59,27.23,27.17,11,1,11,0.08
2012-5-16,76,63,54,61,54,46,98,75,37,27.26,27.14,12,1,12,0.00
2012-5-17,79,63,50,63,51,45,98,71,32,27.26,27.14,11,1,11,0.00
2012-5-18,77,63,53,61,55,48,98,78,40,27.31,27.23,9,1,9,0.12
2012-5-19,78,64,52,64,55,48,98,76,40,27.40,27.23,11,1,11,0.00
2012-5-20,79,64,51,58,50,41,98,67,31,27.37,27.23,10,1,10,0.00
2012-5-21,77,60,49,63,54,48,98,83,40,27.28,27.14,8,1,8,9.13
2012-5-22,60,55,53,60,54,53,98,98,98,27.20,27.11,2,0,2,0.00
2012-5-23,66,61,58,62,60,57,98,95,85,27.17,24.57,2,0,2,9.50
2012-5-24,80,64,55,63,54,40,98,78,26,27.26,27.14,11,1,11,0.00
2012-5-25,87,74,61,63,58,46,96,61,30,27.37,27.20,8,1,8,9.50
2012-5-26,86,70,57,65,59,54,97,72,35,27.43,27.34,10,1,10,0.00
2012-5-27,85,70,58,66,58,50,98,71,32,27.40,27.28,7,1,7,0.00
2012-5-28,85,71,58,67,59,54,98,70,40,27.34,27.20,12,1,12,0.00
2012-5-29,81,68,62,67,62,56,98,84,45,27.26,27.11,8,1,8,0.50
2012-5-30,82,68,56,67,54,39,98,68,23,27.17,27.05,12,2,12,0.50
2012-5-31,82,67,50,59,52,45,98,63,30,27.17,27.02,10,1,10,0.00
2012-6-1,71,64,50,62,57,45,98,79,43,27.08,26.93,11,1,11,0.50
2012-6-2,68,56,45,52,46,40,98,72,41,27.17,27.08,14,3,14,0.04
2012-6-3,55,55,55,52,52,52,91,91,90,27.14,27.14,2,0,2,0.04
2012-6-4,78,65,53,61,53,48,98,71,37,27.14,26.99,13,2,13,0.04
2012-6-5,73,63,54,59,53,44,98,74,39,27.08,26.99,12,2,12,0.25
2012-6-6,75,62,53,61,53,44,98,76,34,27.23,27.05,10,1,10,0.12
2012-6-7,75,62,51,61,51,44,98,72,37,27.31,27.23,8,1,8,10.62
2012-6-8,61,50,47,56,49,46,98,95,77,27.37,27.28,0,0,0,0.00
2012-6-11,76,67,62,67,64,50,97,92,40,27.31,27.23,3,0,3,10.71
2012-6-12,84,71,62,70,63,55,98,79,40,27.26,27.17,10,1,10,11.37
2012-6-13,82,69,58,67,58,52,98,73,40,27.26,27.17,9,1,9,10.71
2012-6-14,60,58,56,56,56,54,98,94,88,27.26,27.23,2,0,2,0.00
2012-6-23,82,73,56,66,63,56,98,73,48,27.31,27.20,5,0,5,0.66
2012-6-24,89,69,58,68,60,51,98,79,29,27.26,27.17,6,0,6,0.00
2012-7-1,86,78,70,64,61,58,81,60,39,27.26,27.14,1,0,1,0.00
2012-7-2,88,74,65,68,64,60,98,76,42,27.37,27.20,11,0,11,1.58
2012-7-3,73,66,62,69,65,61,98,95,86,27.31,27.23,2,0,2,0.37
2012-7-4,86,70,60,72,65,59,98,85,40,27.28,27.17,8,0,8,0.17
2012-7-5,91,73,63,73,63,55,98,77,35,27.31,27.17,13,1,13,0.00
2012-7-6,90,72,60,71,63,58,98,78,37,27.28,27.20,10,0,10,0.16
2012-7-7,93,76,64,72,65,53,98,74,28,27.34,27.23,7,0,7,0.00
2012-7-8,90,74,66,73,68,63,98,83,43,27.31,27.17,6,0,6,0.00
2012-7-9,82,72,64,74,68,64,98,88,63,27.23,27.11,9,1,9,0.46
2012-7-12,67,66,66,66,66,66,98,98,97,27.31,27.17,0,0,0,14.69
2012-7-13,81,70,66,70,66,63,98,88,56,27.37,27.26,4,0,4,14.98
2012-7-14,87,72,66,73,65,56,98,82,40,27.43,27.31,8,0,8,15.31
2012-7-15,88,71,63,72,65,60,98,84,41,27.43,27.28,6,0,6,0.25
2012-7-16,86,74,65,70,66,59,98,80,45,27.37,27.20,13,1,13,15.35
2012-7-17,84,71,62,70,66,61,98,85,52,27.26,27.17,8,1,8,0.66
2012-7-18,87,71,63,71,65,54,98,83,40,27.28,27.17,8,0,8,0.00
2012-7-19,66,66,66,65,65,65,94,94,94,27.31,27.17,7,1,7,0.71
2012-7-20,66,66,66,65,65,65,94,94,94,27.23,27.11,6,0,6,0.17
2012-7-21,66,66,66,65,65,65,94,94,94,27.31,27.17,18,0,18,0.66
2012-7-22,66,66,66,65,65,65,94,94,94,27.43,27.31,10,0,10,0.00
2012-8-9,65,62,0,64,62,0,98,94,97,27.37,27.05,0,0,0,1.83
2012-8-10,82,70,63,69,62,55,98,80,41,27.08,27.02,4,0,8,0.00
2012-8-11,76,68,58,65,60,55,98,80,49,27.20,27.05,9,1,9,0.04
2012-8-12,81,65,55,64,55,50,98,75,36,27.26,27.17,7,0,7,0.00
2012-8-16,77,67,60,61,59,54,93,77,49,27.26,27.17,0,0,0,0.04
2012-8-17,78,66,56,64,59,54,98,81,50,27.26,27.08,5,0,5,0.00
2012-8-22,80,64,52,63,52,43,98,71,30,30.24,27.08,1,0,1,0.25
2012-8-23,82,66,56,63,55,46,98,72,33,27.40,27.28,8,0,8,0.25
2012-8-24,84,66,58,63,57,47,98,77,29,27.43,27.28,6,0,6,0.25
2012-8-25,84,66,54,64,55,49,98,73,32,27.43,27.28,7,0,7,0.25
2012-8-26,85,68,57,66,55,46,98,70,29,27.46,27.28,9,0,9,0.25
2012-8-27,87,68,54,65,54,40,98,69,20,27.40,27.23,1,0,1,20.41
2012-8-28,86,68,56,67,58,49,95,74,29,27.31,27.14,1,0,1,0.25
2012-8-29,83,70,64,70,64,56,98,83,43,27.23,27.17,2,0,2,0.25
2012-8-30,83,71,64,70,64,56,98,82,41,27.37,27.23,1,0,1,0.25
2012-8-31,88,71,65,68,64,55,97,81,34,27.49,27.34,58,0,58,0.00
2012-9-1,88,73,64,69,63,52,98,76,32,27.43,27.28,1,0,1,0.05
2012-9-2,86,72,66,71,64,52,98,78,34,27.31,27.17,2,0,2,0.24
2012-9-3,79,70,65,70,65,56,98,86,49,27.23,27.14,1,0,1,0.50
2012-9-4,81,71,67,69,65,55,97,82,44,27.20,27.11,1,0,1,0.04
2012-9-5,87,74,34,69,64,0,98,76,37,27.17,27.05,0,0,0,0.00
2012-9-6,84,71,63,70,63,54,98,78,37,27.20,27.11,0,0,0,0.00
2012-9-7,89,69,60,67,58,42,98,74,21,27.26,27.05,0,0,0,0.00
2012-9-8,80,67,58,64,58,50,98,77,40,27.11,26.99,9,0,9,0.09
2012-9-9,73,58,46,57,46,38,97,70,29,27.23,27.11,10,1,10,0.00
2012-9-10,77,59,47,59,47,38,98,71,28,27.34,27.23,1,0,1,0.00
2012-9-11,76,60,48,57,49,41,95,73,32,27.49,27.34,0,0,0,20.75
2012-9-12,80,64,55,59,52,39,95,69,26,27.55,27.40,1,0,1,0.00
2012-9-17,72,67,55,64,60,0,97,79,45,27.46,26.99,0,0,0,21.58
2012-9-18,69,65,55,65,60,49,97,84,64,27.14,26.84,12,1,12,1.65
2012-9-19,74,59,50,54,48,40,96,71,34,27.28,27.11,8,0,8,23.23
2012-9-20,78,60,50,62,49,38,98,74,25,27.31,27.17,0,0,0,23.23
2012-9-21,78,60,50,65,48,34,98,73,22,27.28,27.11,2,0,2,0.00
2012-9-22,79,62,52,55,48,36,97,65,26,27.26,27.11,9,1,9,23.23
2012-9-23,72,57,40,47,36,28,96,53,22,27.34,27.23,2,0,2,23.23
2012-9-24,73,57,32,44,35,29,94,51,23,27.43,27.26,4,0,4,0.00
2012-9-25,80,56,38,55,44,35,98,73,24,27.37,27.28,0,0,0,0.00
2012-9-26,83,64,51,60,52,44,98,73,28,27.40,27.28,0,0,0,0.04
2012-9-27,78,61,51,66,53,44,98,79,32,27.43,27.28,0,0,0,0.00
2012-9-28,79,62,52,66,54,44,98,81,31,27.34,27.17,0,0,0,0.00
2012-9-29,62,59,58,61,58,56,98,97,93,27.23,27.20,0,0,0,0.09
2012-10-1,66,61,60,61,60,58,98,96,78,27.17,26.87,0,0,0,1.41
2012-10-2,78,66,59,65,53,41,98,68,28,27.14,26.87,10,1,10,1.66
2012-10-3,80,65,56,57,48,27,94,61,18,27.37,27.11,2,0,2,0.09
2012-10-4,75,60,50,56,49,40,98,74,32,27.46,27.34,8,0,8,3.07
2012-10-5,81,58,47,62,48,34,98,76,20,27.46,27.17,0,0,0,0.09
2012-10-6,70,57,50,62,51,46,98,82,44,27.23,27.11,8,1,8,0.00
2012-10-7,53,53,53,48,48,47,83,83,79,27.20,27.14,0,0,0,0.00
2012-10-8,53,53,53,48,48,48,83,83,83,27.17,27.17,0,0,0,0.00
2012-10-15,69,59,46,59,37,25,97,50,23,27.14,27.02,13,2,13,3.98
2012-10-16,68,50,37,44,34,23,98,63,23,27.17,26.99,11,2,11,0.00
2012-10-17,73,52,34,47,32,18,98,58,14,27.14,26.96,12,2,12,0.00
2012-10-18,68,60,56,44,38,31,58,44,36,26.99,26.93,19,4,19,0.00
2012-10-24,81,64,48,45,37,27,85,45,14,27.31,26.90,18,2,18,3.98
2012-10-25,78,55,37,50,40,33,98,64,21,27.31,27.20,7,1,7,3.98
2012-10-26,75,56,46,55,44,34,96,71,25,27.31,27.11,6,1,6,3.98
2012-10-27,65,53,46,53,45,39,94,75,49,27.14,26.99,15,3,15,3.98
2012-10-28,49,44,38,42,37,27,86,76,63,27.02,26.93,15,4,15,0.17
2012-10-29,41,38,33,29,24,18,81,59,43,26.99,26.75,18,4,18,4.19
2012-10-30,40,36,33,29,22,16,76,59,41,26.81,26.61,16,3,16,4.23
2012-10-31,55,42,35,30,20,0,80,47,15,26.93,26.78,14,3,14,4.23
2012-11-1,57,41,25,24,14,2,78,38,15,27.02,26.93,15,3,15,4.23
2012-11-2,64,48,31,29,24,0,74,41,21,27.14,26.96,23,3,23,4.23
2012-11-3,71,50,29,41,30,21,88,53,20,27.23,27.08,18,2,18,4.23
2012-11-4,64,57,39,47,38,30,79,50,36,27.17,27.05,13,3,13,4.23
2012-11-5,59,42,30,36,24,10,95,57,17,27.20,27.05,8,1,8,4.23
2012-11-6,41,37,32,35,29,22,86,73,60,27.17,26.99,5,1,5,4.40
2012-11-7,45,40,39,38,34,32,87,79,67,27.11,26.93,9,2,9,4.52
2012-11-8,57,39,28,35,27,18,97,68,27,27.28,27.11,12,2,12,4.52
2012-11-9,68,34,23,31,23,16,90,70,15,27.40,27.26,5,1,5,4.52
2012-11-10,75,44,27,33,24,12,92,54,10,27.52,27.37,5,1,5,0.17
2012-11-11,68,50,28,36,27,11,84,48,13,27.55,27.46,17,3,17,0.00
2012-11-12,64,58,41,50,38,34,83,50,36,27.46,27.28,19,4,19,4.77
2012-11-13,53,39,25,36,25,12,84,62,21,27.49,27.40,9,3,9,4.81
2012-11-14,55,35,21,28,19,16,88,59,26,27.49,27.34,6,1,6,0.17
2012-11-15,60,42,30,29,25,19,88,55,27,27.37,27.26,8,2,9,0.00
2012-11-16,30,29,28,25,25,24,86,83,81,27.34,17.84,2,0,2,4.81
2012-11-17,33,32,28,24,12,11,86,44,41,27.49,17.84,4,1,4,4.85
2012-11-18,57,30,23,29,15,10,70,53,31,27.58,27.46,5,1,5,4.81
2012-11-23,64,51,36,41,26,0,100,40,26,27.23,17.84,19,2,20,4.81
2012-11-24,45,32,20,22,14,0,100,51,22,27.23,27.11,10,2,10,4.81
2012-11-25,61,28,17,15,10,0,80,53,14,27.20,27.05,9,1,9,4.81
2012-11-26,67,42,22,26,17,9,79,42,14,27.28,27.17,13,2,13,4.81
2012-11-27,49,44,39,43,38,25,95,80,39,27.31,27.17,10,2,10,4.85
2012-11-28,54,39,24,32,22,6,81,55,15,27.46,27.28,9,2,9,4.85
2012-11-29,50,25,20,25,18,14,84,74,27,27.49,27.43,4,0,4,4.85
2012-12-16,57,51,48,52,49,21,96,92,25,27.43,26.96,6,0,6,6.35
2012-12-17,57,50,44,50,42,31,98,76,41,26.96,24.57,15,2,15,6.43
2012-12-18,55,43,28,44,29,5,96,66,15,27.08,26.75,13,2,13,6.51
2012-12-19,64,41,28,35,26,19,87,62,21,27.20,27.05,8,2,8,6.51
2012-12-20,52,43,32,46,32,12,98,68,32,27.20,26.75,23,4,23,7.43
2012-12-21,34,34,33,15,13,12,46,42,40,26.78,26.75,18,3,18,7.43
2012-12-29,31,28,27,22,15,0,100,59,42,27.17,17.84,12,3,12,9.17
2012-12-30,42,28,21,18,13,6,80,53,28,27.46,27.17,57,2,57,9.17
2012-12-31,46,26,22,25,19,7,81,74,23,27.43,27.31,4,0,4,9.17